Location: Marcé
(47.5801°N, 0.3280°W)
Time: 14:29:13
(UTC+01:00)

Tiros 1 despin weight - Pass Details

Date: 11 December 2021
Orbit: 592 x 641 km, 48.2° (Epoch: 19 January)

Event Time Altitude Azimuth Distance (km) Brightness Sun altitude
Rises 13:09:15 0° 259° (WSW) 2,852 ? 19.3°
Reaches altitude 10° 13:11:33 10° 259° (W) 1,943 ? 19.3°
Maximum altitude 13:16:01 90° 140° (SE) 602 ? 19.2°
Drops below altitude 10° 13:20:26 10° 81° (E) 1,926 ? 19.1°
Sets 13:22:43 0° 81° (E) 2,826 ? 19.1°
